Home > Weather > Küsnacht > Past weeks

Flag for Switzerland Past Weather in Küsnacht, Zurich, Switzerland — Yesterday and Last 2 Weeks

Now
51 °F

Cool.


Feels Like: 49 °F
Forecast: 40 / 70 °F
Wind: 6 mph from Northeast

Location: Zuerich-Fluntern

Current Time: May 25, 2016 at 1:33:52 AM

Latest Report: May 25, 2016 at 12:00 AM


Visibility: N/A

Pressure: 29.97 "Hg

Humidity: 84%

Dew Point: 46 °F

Location of KüsnachtLocation

Past Weather in Küsnacht — Graph

°F

Küsnacht Temperature Yesterday

Maximum temperature yesterday: 57 °F (at 1:00 PM)
Minimum temperature yesterday: 44 °F (at 1:00 AM)
Average temperature yesterday: 50 °F

High & Low Weather Summary for the Past Weeks

 TemperatureHumidityPressure
High78 °F (May 22, 2:00 PM)97% (May 13, 12:00 PM)30.23 "Hg (May 13, 12:00 PM)
Low42 °F (May 23, 10:00 AM)28% (May 21, 4:00 PM)29.47 "Hg (May 11, 7:00 PM)
Average53 °F76%29.90 "Hg
* Reported May 10 12:00 AM — May 25 12:00 AM, Küsnacht, Weather by CustomWeather, © 2016

Note: Actual official high and low records may vary slightly from our data, if they occured in-between our weather recording intervals... More about our weather records

Advertising

Küsnacht Weather History for the Previous 24 Hours

Scroll right to see more
 ConditionsComfort  
Time TempWeatherWind HumidityBarometerVisibility
12:00 AM
Wed, May 25
51 °FCool.6 mph84%29.97 "HgN/A
11:00 PM
Tue, May 24
51 °FCool.6 mph82%29.97 "HgN/A
10:00 PM51 °FCool.7 mph80%29.97 "HgN/A
9:00 PM53 °FCool.3 mph78%29.96 "HgN/A
8:00 PM55 °FPartly sunny.2 mph68%29.94 "HgN/A
7:00 PM54 °FCool.2 mph74%29.95 "HgN/A
6:00 PM55 °FCool.1 mph67%29.95 "HgN/A
5:00 PM56 °FCool.5 mph63%29.96 "HgN/A
4:00 PM54 °FCool.2 mph69%29.98 "HgN/A
3:00 PM53 °FCool.2 mph74%30.00 "HgN/A
2:00 PM53 °FOvercast.5 mph67%30.00 "HgN/A
1:00 PM57 °FCool.7 mph69%29.98 "HgN/A
12:00 PM54 °FCool.5 mph79%30.01 "HgN/A
11:00 AM49 °FCool.6 mph87%30.03 "HgN/A
10:00 AM49 °FCool.7 mph92%30.03 "HgN/A
9:00 AM48 °FCool.6 mph94%30.04 "HgN/A
8:00 AM47 °FOvercast.5 mph94%30.04 "HgN/A
7:00 AM46 °FCool.5 mph94%30.05 "HgN/A
6:00 AM46 °FCool.7 mph95%30.04 "HgN/A
5:00 AM45 °FCool.3 mph96%30.04 "HgN/A
4:00 AM45 °FCool.7 mph94%30.04 "HgN/A
3:00 AM45 °FQuite cool.7 mph94%30.04 "HgN/A
2:00 AM45 °FQuite cool.7 mph93%30.05 "HgN/A
1:00 AM44 °FQuite cool.9 mph92%30.05 "HgN/A
Weather by CustomWeather, © 2016

See weather overviewHow to use our weather pages